SCP
0 0 0 0 0 0 0 0 0 0 0 -0 -0 -0 -0 -0 0 0 0 0 0 0 0 0 0 0 0 0 0 0 0 0 0 0 0 0 0 0 0 0 0 0 0 1
0 0 0 0 0 0 -0 0 0 0 0 -0 0 0 0 0 -0 0 0 0 0 0 0 0 0 0 0 0 0 0 0 0 0 0 0 0 0 0 0 0 0 0 0 0
0 0 0 0 0 0 0 0 0 0 0 0 0 0 0 0 0 0 0 0 0 0 0 0 0 0 0 0 0 0 0 0 0 0 0 0 0 0 0 0 0 0 0 0
0 0 0 0 0 0 0 0 0 0 0 0 0 0 0 0 0 0 0 0 0 0 0 0 0 0 0 0 0 0 0 0 0 0 0 0 0 0 0 0 0 0 0 0
0 0 0 0 0 0 0 0 0 0 0 0 0 0 0 0 0 0 0 0 0 0 0 0 0 0 0 0 0 0 0 0 0 0 0 0 0 0 0 0 0 0 0 0
0 0 0 0 0 0 0 0 0 0 0 0 0 0 0 0 0 0 0 0 0 0 0 0 0 0 0 0 0 0 0 0 0 0 0 0 0 0 0 0 0 0 0 0
0 0 0 0 0 0 0 0 0 0 0 0 0 0 0 0 0 0 0 0 0 0 0 0 0 0 0 0 0 0 0 0 0 0 0 0 0 0 0 0 0 0 0 0
0 0 0 0 0 0 0 0 0 0 0 0 0 0 0 0 0 0 0 0 0 0 0 0 0 0 0 0 0 0 0 0 0 0 0 0 0 0 0 0 0 0 0 0
0 0 0 0 0 0 0 0 0 0 0 0 0 0 0 0 0 0 0 0 0 0 0 0 0 0 0 0 0 0 0 0 0 0 0 0 0 0 0 0 0 0 0 0
0 0 0 0 0 0 0 0 0 0 0 0 0 0 0 0 0 0 0 0 0 0 0 0 0 0 0 0 0 0 0 0 0 0 0 0 0 0 0 0 0 0 0 0
0 -0 -0 0 0 0 0 0 0 0 0 0 0 0 0 0 0 0 0 0 0 0 0 0 0 0 0 0 0 0 0 0 0 0 0 0 0 0 0 0 0 0 0 0
0 0 0 0 -0 0 0 0 0 0 0 0 0 0 0 0 0 0 0 0 0 0 0 0 0 0 0 0 0 0 0 0 0 0 0 0 0 0 0 0 0 0 0 0
0 0 0 0 0 0 0 0 0 0 0 0 0 0 0 0 0 0 0 0 0 0 0 0 0 0 0 0 0 0 0 0 0 0 0 0 0 0 0 0 0 0 0 0
0 0 0 0 0 0 0 0 0 0 0 0 0 0 0 0 0 0 0 0 0 0 0 0 0 0 0 0 0 0 0 0 0 0 0 0 0 0 0 0 0 0 0 0
0 0 0 0 0 0 0 0 0 0 0 0 0 0 0 0 0 0 0 0 0 0 0 0 0 0 0 0 0 0 0 0 0 0 0 0 0 0 0 0 0 0 0 0
0 0 0 0 0 0 0 0 0 0 0 0 0 0 0 0 0 0 0 0 0 0 0 0 0 0 0 0 0 0 0 0 0 0 0 0 0 0 0 0 0 0 0 0
0 0 0 0 0 0 0 0 0 0 0 0 0 0 0 0 0 0 0 0 0 0 0 0 0 0 -0 0 0 0 0 0 0 0 0 0 0 0 0 0 0 0 0 0
0 0 0 0 0 0 0 0 0 0 0 0 0 0 0 0 0 0 0 0 0 0 0 0 0 -0 -0 0 0 0 0 0 0 0 0 0 0 0 0 0 0 0 0 0
0 0 0 0 0 0 0 0 0 0 0 0 0 0 0 0 0 0 0 0 0 0 0 0 -0 -0 -0 0 0 0 0 0 0 0 0 0 0 0 0 0 0 0 0 0
0 0 0 0 0 0 0 0 0 0 0 0 0 0 0 0 0 -0 -0 -0 -0 0 -0 -0 -0 -0 0 0 0 -0 0 -0 -0 0 0 -0 -0 -0 -0 -0 -0 -0 -0 0
0 0 0 0 0 0 0 0 0 0 0 0 0 0 -0 -0 -0 -0 -0 0 -0 -0 0 -0 -0 -0 -0 -0 0 0 -0 -0 -0 -0 -0 -0 -0 -0 -0 -0 -0 -0 0 0
0 0 0 0 0 0 0 0 0 0 0 0 -0 -0 -0 -0 -0 -0 0 0 0 0 -0 0 -0 -0 -0 -0 0 0 -0 -0 -0 -0 -0 -0 -0 -0 -0 -0 0 0 0 -0
0 0 0 0 0 0 0 0 -0 0 0 0 -0 -0 -0 0 0 0 -0 -0 -0 -0 0 0 0 -0 0 -0 -0 0 0 -0 -0 -0 -0 -0 -0 -0 0 0 0 0 -0 -0
-0 -0 0 0 0 0 0 0 0 0 0 0 0 0 0 0 0 0 0 0 0 0 0 0 0 0 -0 -0 -0 -0 0 -0 -0 -0 0 0 0 0 0 0 0 -0 -0 0
0 0 0 0 0 0 0 0 0 0 0 0 0 0 0 0 0 0 0 -0 -0 -0 -0 -0 0 0 0 -0 -0 -0 -0 -0 -0 -0 0 0 -0 -0 -0 -0 -0 -0 0 -0
-0 -0 0 0 0 0 0 0 0 0 0 0 0 0 0 0 0 0 0 0 0 -0 0 0 0 -0 -0 -0 -0 -0 -0 0 0 0 -0 -0 0 -0 0 0 0 0 0 0
-0 -0 0 0 0 0 0 0 0 0 0 0 0 0 0 0 0 0 -0 -0 0 0 0 0 0 0 0 0 0 0 0 -0 -0 0 0 0 0 0 0 0 0 0 0 0
Wind_Speed_500mb
20 25 30 15 23 18 25 29 11 8 11 21 21 18 34 40 24 29 35 15 27 22 23 19 15 18 25 32 38 34 37 35 29 24 30 34 28 39 42 32 24 22 21 17
14 26 31 23 30 28 47 21 19 14 6 14 26 30 34 34 37 19 36 33 27 24 22 23 26 27 30 30 36 44 46 38 35 33 31 29 34 36 41 33 37 30 17 20
8 20 28 16 11 8 11 15 9 7 6 7 15 27 34 49 50 41 35 27 23 22 18 16 21 26 30 36 36 32 34 41 39 42 40 35 33 36 33 35 40 38 30 18
8 14 7 12 13 12 10 23 27 13 2 20 35 55 54 46 39 32 26 24 21 18 16 22 30 42 47 44 51 54 49 36 33 30 37 45 46 36 29 42 41 40 37 29
5 6 16 22 7 9 8 12 27 35 24 38 48 47 32 26 21 18 17 20 22 27 29 37 42 35 33 39 47 51 47 51 47 43 39 36 40 48 42 28 35 41 40 34
3 3 6 13 19 25 20 3 22 36 31 35 37 11 2 18 12 12 8 18 23 35 34 28 38 34 40 44 39 38 35 33 38 43 49 47 43 41 44 44 44 39 45 40
5 6 10 14 22 15 5 8 12 24 27 30 13 11 17 19 22 12 17 27 27 34 37 32 37 40 42 42 41 48 48 40 42 37 39 48 57 58 51 46 39 48 51 53
6 6 10 15 8 7 13 14 15 19 25 21 15 14 19 24 25 29 37 29 34 38 33 45 46 44 46 45 48 48 49 48 49 51 52 52 47 45 49 61 60 50 53 57
1 8 6 19 25 6 2 18 14 15 14 11 11 16 23 28 36 35 30 34 33 37 48 47 48 43 45 51 51 51 47 45 51 51 56 47 46 48 50 49 50 61 62 59
4 9 24 5 7 21 16 18 25 15 10 12 13 19 24 28 32 38 42 44 41 35 39 37 43 45 47 51 52 51 49 52 48 49 46 43 43 43 48 51 55 58 55 60
8 12 31 12 0 15 9 9 15 14 10 11 18 24 30 26 23 25 35 40 31 33 38 41 47 47 46 49 37 41 40 40 37 35 41 47 49 46 50 47 52 56 56 54
7 12 5 28 24 4 13 10 4 6 13 21 25 26 24 32 37 37 43 44 37 33 38 43 45 47 46 35 30 30 29 32 39 42 47 48 44 47 49 54 56 48 48 50
7 6 4 12 12 12 10 7 8 16 15 19 23 28 26 27 27 27 34 36 38 38 40 43 43 39 30 25 25 27 38 42 41 45 46 46 50 51 50 46 45 41 44 42
14 14 7 9 10 11 7 5 8 10 19 19 23 23 28 31 35 33 32 36 35 37 37 33 36 33 32 27 29 30 38 42 49 54 55 56 55 48 47 44 47 47 42 43
12 7 6 12 10 10 6 4 11 15 12 18 18 27 34 37 35 37 39 37 34 35 36 33 35 27 20 23 35 45 53 57 54 58 60 56 52 44 44 42 37 40 49 40
6 7 2 10 8 9 6 8 6 14 19 14 28 33 32 33 31 33 37 36 39 42 31 22 31 32 37 46 55 59 63 67 64 50 52 50 49 43 39 36 37 44 45 39
14 12 7 3 10 6 6 6 8 10 12 20 35 33 32 35 33 38 35 28 30 27 21 28 27 39 49 55 64 62 57 51 36 35 32 31 31 25 29 30 35 42 29 16
8 14 8 15 11 6 9 10 9 8 19 25 31 36 38 36 34 38 33 24 26 12 26 29 35 51 59 49 42 48 46 43 41 33 32 24 19 23 20 24 24 13 3 5
14 19 13 16 8 6 6 4 8 16 20 26 35 31 31 27 30 32 25 19 17 13 25 32 48 57 46 32 40 38 39 34 26 18 11 1 8 5 9 12 4 4 6 9
14 14 14 13 2 7 5 5 14 16 25 32 23 31 34 33 25 20 18 17 20 20 28 36 53 51 42 37 34 33 31 30 28 22 23 23 13 12 13 4 8 14 16 15
14 17 14 11 3 4 3 11 14 17 23 28 28 30 24 17 19 17 27 27 28 25 24 35 39 43 42 31 30 29 24 24 23 23 24 24 21 20 21 26 29 27 25 25
16 13 14 10 3 9 4 9 12 15 25 31 36 27 18 23 24 20 20 24 31 30 36 31 41 42 39 35 31 28 26 28 30 30 30 27 30 39 42 39 40 41 37 33
10 18 13 10 6 6 3 6 6 11 28 27 30 31 29 25 23 24 31 23 23 30 37 40 32 32 43 37 31 33 34 35 42 47 52 55 55 54 54 51 44 31 33 40
16 16 13 12 4 5 2 8 8 9 22 24 32 31 30 27 26 29 29 23 23 27 34 35 32 34 32 41 47 51 52 50 50 53 52 51 50 47 48 43 35 39 32 33
17 17 15 9 4 5 8 14 11 1 14 18 25 24 23 25 23 27 25 25 35 27 29 46 54 57 55 55 55 53 53 51 49 49 49 39 41 41 39 39 35 30 29 27
18 19 15 4 5 8 9 6 14 9 10 16 14 22 21 25 28 24 27 23 33 32 27 24 40 48 50 54 40 41 40 38 36 30 29 31 33 28 26 25 25 24 21 20
20 17 15 13 19 16 14 13 10 18 12 17 14 16 20 24 21 23 26 22 35 34 35 31 33 36 37 35 38 36 36 28 23 20 21 27 26 25 25 20 17 19 28 33
Wind_Direction_500mb
292 292 300 246 263 268 260 268 280 281 191 204 204 194 205 187 151 184 203 158 103 76 53 32 356 343 331 326 320 321 310 303 303 311 315 309 312 303 312 309 306 292 304 304
314 311 300 329 317 224 236 269 293 305 83 147 152 136 131 163 194 202 94 83 66 49 28 3 345 335 328 325 318 312 311 311 300 296 297 304 308 315 292 301 303 300 291 285
275 313 325 308 268 343 26 14 7 30 91 105 75 96 82 81 78 72 66 56 43 28 8 339 318 308 303 305 302 306 318 310 308 306 291 295 303 310 291 288 286 296 296 303
278 321 254 248 345 47 28 35 4 313 345 96 96 78 73 69 69 57 53 50 41 12 342 314 305 301 305 301 296 293 289 291 291 306 309 296 299 302 321 294 274 279 285 297
171 259 290 311 28 17 43 58 18 43 57 73 98 89 64 46 58 57 36 2 349 333 322 321 319 320 311 309 310 304 291 290 284 287 303 305 311 303 298 303 295 278 277 278
222 265 270 307 342 12 348 72 8 58 41 28 31 61 234 82 46 351 342 343 328 327 328 326 313 322 316 315 316 330 331 333 321 298 289 292 291 300 303 294 293 285 279 274
192 222 272 236 254 313 282 200 72 57 64 54 58 48 8 8 10 360 334 329 315 316 317 311 311 316 321 306 303 306 306 309 310 312 315 299 290 285 286 293 292 286 278 274
168 213 271 345 23 1 165 118 76 64 73 69 44 5 344 342 338 331 322 320 316 315 300 312 316 314 306 303 304 306 307 306 308 311 309 309 303 297 293 280 286 290 284 280
292 218 257 8 348 56 179 141 99 94 74 45 8 342 329 329 327 326 322 315 307 295 301 303 307 308 304 304 305 297 297 294 302 302 307 311 306 303 299 301 298 293 283 280
338 334 310 320 8 33 84 84 99 93 53 17 359 340 331 313 309 306 306 305 304 303 307 311 317 309 302 301 301 298 292 294 298 304 309 316 316 309 304 302 298 296 291 279
209 217 292 344 93 193 115 70 48 44 40 357 345 333 324 316 318 318 303 303 312 311 307 306 300 307 305 310 307 299 299 301 304 311 308 304 308 302 306 301 302 295 286 284
249 23 105 166 167 123 119 109 95 354 352 345 337 341 319 314 318 315 311 306 307 309 305 307 301 304 310 311 300 307 308 310 312 309 312 314 316 309 303 307 308 298 290 282
273 280 278 240 121 113 111 87 39 16 354 349 335 332 332 324 320 313 309 309 307 306 305 306 308 305 307 305 308 309 312 311 308 312 314 308 310 310 312 310 315 302 300 299
240 242 239 83 91 124 129 53 14 334 344 337 333 329 320 313 312 320 321 311 313 306 314 321 324 313 299 307 308 308 300 302 304 304 298 299 305 311 315 309 301 305 312 289
215 179 128 129 129 122 89 353 21 13 349 335 332 324 319 316 314 310 313 311 309 306 310 318 330 323 322 313 305 306 306 304 300 298 292 293 295 302 306 309 297 301 308 297
199 171 55 112 154 158 119 22 3 349 358 341 333 344 342 340 335 336 322 309 315 312 326 327 330 314 307 311 312 311 307 303 299 291 287 293 291 285 298 298 300 311 312 291
300 79 89 78 133 118 78 19 18 349 350 337 343 347 329 325 320 325 327 319 320 329 342 355 344 334 325 322 317 314 314 312 304 290 299 292 298 296 299 297 301 309 316 290
144 100 105 143 130 111 87 25 10 336 335 346 335 326 326 322 328 332 332 318 321 337 5 350 344 332 326 328 334 333 328 320 308 297 286 281 285 301 301 307 301 273 177 146
134 135 139 119 77 91 77 49 340 330 348 337 329 342 343 336 324 332 342 332 346 15 12 356 343 341 350 352 350 344 341 345 339 317 295 295 289 191 6 6 103 55 52 68
136 139 140 126 169 63 88 6 347 354 338 338 343 326 338 345 355 3 354 35 52 22 4 354 351 353 357 4 1 7 34 38 35 54 79 115 92 49 45 61 106 87 85 96
156 156 161 174 84 52 98 17 20 358 346 345 335 335 358 0 11 24 79 49 36 27 14 353 9 13 10 15 19 23 27 58 83 87 83 81 77 76 89 97 92 83 78 78
162 167 152 167 185 123 106 37 28 3 360 17 34 39 49 61 63 62 47 44 46 22 14 26 23 19 24 29 40 42 52 62 65 69 77 75 74 80 81 87 93 88 85 86
154 141 157 158 129 106 120 120 42 0 21 34 46 55 57 40 49 45 49 55 44 39 27 26 18 14 23 43 54 58 59 66 78 82 82 83 85 81 76 72 64 64 78 83
138 142 131 131 135 108 144 143 115 8 39 51 44 46 53 53 47 49 46 38 40 43 40 42 21 9 61 69 69 71 77 82 86 89 78 79 76 75 75 72 73 66 63 66
128 137 154 175 166 119 105 128 127 91 34 40 41 45 46 51 59 54 53 46 42 67 57 51 50 55 62 68 66 64 63 65 67 64 66 69 79 82 84 80 74 71 78 88
123 109 99 101 90 117 111 159 130 126 68 54 39 38 53 54 57 57 69 57 61 72 72 48 40 49 54 52 60 68 65 65 67 71 66 76 77 77 86 89 88 81 72 71
122 113 98 31 84 105 81 103 94 90 19 95 62 29 47 49 59 58 68 68 58 61 61 55 53 53 51 55 51 71 66 60 56 57 72 89 84 85 78 87 82 60 65 77
Wind_Speed_850mb
20 25 30 15 23 18 25 29 11 8 11 21 21 18 34 40 24 29 35 15 27 22 23 19 15 18 25 32 38 34 37 35 29 24 30 34 28 39 42 32 24 22 21 17
14 26 31 23 30 28 47 21 19 14 6 14 26 30 34 34 37 19 36 33 27 24 22 23 26 27 30 30 36 44 46 38 35 33 31 29 34 36 41 33 37 30 17 20
8 20 28 16 11 8 11 15 9 7 6 7 15 27 34 49 50 41 35 27 23 22 18 16 21 26 30 36 36 32 34 41 39 42 40 35 33 36 33 35 40 38 30 18
8 14 7 12 13 12 10 23 27 13 2 20 35 55 54 46 39 32 26 24 21 18 16 22 30 42 47 44 51 54 49 36 33 30 37 45 46 36 29 42 41 40 37 29
5 6 16 22 7 9 8 12 27 35 24 38 48 47 32 26 21 18 17 20 22 27 29 37 42 35 33 39 47 51 47 51 47 43 39 36 40 48 42 28 35 41 40 34
3 3 6 13 19 25 20 3 22 36 31 35 37 11 2 18 12 12 8 18 23 35 34 28 38 34 40 44 39 38 35 33 38 43 49 47 43 41 44 44 44 39 45 40
5 6 10 14 22 15 5 8 12 24 27 30 13 11 17 19 22 12 17 27 27 34 37 32 37 40 42 42 41 48 48 40 42 37 39 48 57 58 51 46 39 48 51 53
6 6 10 15 8 7 13 14 15 19 25 21 15 14 19 24 25 29 37 29 34 38 33 45 46 44 46 45 48 48 49 48 49 51 52 52 47 45 49 61 60 50 53 57
1 8 6 19 25 6 2 18 14 15 14 11 11 16 23 28 36 35 30 34 33 37 48 47 48 43 45 51 51 51 47 45 51 51 56 47 46 48 50 49 50 61 62 59
4 9 24 5 7 21 16 18 25 15 10 12 13 19 24 28 32 38 42 44 41 35 39 37 43 45 47 51 52 51 49 52 48 49 46 43 43 43 48 51 55 58 55 60
8 12 31 12 0 15 9 9 15 14 10 11 18 24 30 26 23 25 35 40 31 33 38 41 47 47 46 49 37 41 40 40 37 35 41 47 49 46 50 47 52 56 56 54
7 12 5 28 24 4 13 10 4 6 13 21 25 26 24 32 37 37 43 44 37 33 38 43 45 47 46 35 30 30 29 32 39 42 47 48 44 47 49 54 56 48 48 50
7 6 4 12 12 12 10 7 8 16 15 19 23 28 26 27 27 27 34 36 38 38 40 43 43 39 30 25 25 27 38 42 41 45 46 46 50 51 50 46 45 41 44 42
14 14 7 9 10 11 7 5 8 10 19 19 23 23 28 31 35 33 32 36 35 37 37 33 36 33 32 27 29 30 38 42 49 54 55 56 55 48 47 44 47 47 42 43
12 7 6 12 10 10 6 4 11 15 12 18 18 27 34 37 35 37 39 37 34 35 36 33 35 27 20 23 35 45 53 57 54 58 60 56 52 44 44 42 37 40 49 40
6 7 2 10 8 9 6 8 6 14 19 14 28 33 32 33 31 33 37 36 39 42 31 22 31 32 37 46 55 59 63 67 64 50 52 50 49 43 39 36 37 44 45 39
14 12 7 3 10 6 6 6 8 10 12 20 35 33 32 35 33 38 35 28 30 27 21 28 27 39 49 55 64 62 57 51 36 35 32 31 31 25 29 30 35 42 29 16
8 14 8 15 11 6 9 10 9 8 19 25 31 36 38 36 34 38 33 24 26 12 26 29 35 51 59 49 42 48 46 43 41 33 32 24 19 23 20 24 24 13 3 5
14 19 13 16 8 6 6 4 8 16 20 26 35 31 31 27 30 32 25 19 17 13 25 32 48 57 46 32 40 38 39 34 26 18 11 1 8 5 9 12 4 4 6 9
14 14 14 13 2 7 5 5 14 16 25 32 23 31 34 33 25 20 18 17 20 20 28 36 53 51 42 37 34 33 31 30 28 22 23 23 13 12 13 4 8 14 16 15
14 17 14 11 3 4 3 11 14 17 23 28 28 30 24 17 19 17 27 27 28 25 24 35 39 43 42 31 30 29 24 24 23 23 24 24 21 20 21 26 29 27 25 25
16 13 14 10 3 9 4 9 12 15 25 31 36 27 18 23 24 20 20 24 31 30 36 31 41 42 39 35 31 28 26 28 30 30 30 27 30 39 42 39 40 41 37 33
10 18 13 10 6 6 3 6 6 11 28 27 30 31 29 25 23 24 31 23 23 30 37 40 32 32 43 37 31 33 34 35 42 47 52 55 55 54 54 51 44 31 33 40
16 16 13 12 4 5 2 8 8 9 22 24 32 31 30 27 26 29 29 23 23 27 34 35 32 34 32 41 47 51 52 50 50 53 52 51 50 47 48 43 35 39 32 33
17 17 15 9 4 5 8 14 11 1 14 18 25 24 23 25 23 27 25 25 35 27 29 46 54 57 55 55 55 53 53 51 49 49 49 39 41 41 39 39 35 30 29 27
18 19 15 4 5 8 9 6 14 9 10 16 14 22 21 25 28 24 27 23 33 32 27 24 40 48 50 54 40 41 40 38 36 30 29 31 33 28 26 25 25 24 21 20
20 17 15 13 19 16 14 13 10 18 12 17 14 16 20 24 21 23 26 22 35 34 35 31 33 36 37 35 38 36 36 28 23 20 21 27 26 25 25 20 17 19 28 33
Wind_Direction_850mb
292 292 300 246 263 268 260 268 280 281 191 204 204 194 205 187 151 184 203 158 103 76 53 32 356 343 331 326 320 321 310 303 303 311 315 309 312 303 312 309 306 292 304 304
314 311 300 329 317 224 236 269 293 305 83 147 152 136 131 163 194 202 94 83 66 49 28 3 345 335 328 325 318 312 311 311 300 296 297 304 308 315 292 301 303 300 291 285
275 313 325 308 268 343 26 14 7 30 91 105 75 96 82 81 78 72 66 56 43 28 8 339 318 308 303 305 302 306 318 310 308 306 291 295 303 310 291 288 286 296 296 303
278 321 254 248 345 47 28 35 4 313 345 96 96 78 73 69 69 57 53 50 41 12 342 314 305 301 305 301 296 293 289 291 291 306 309 296 299 302 321 294 274 279 285 297
171 259 290 311 28 17 43 58 18 43 57 73 98 89 64 46 58 57 36 2 349 333 322 321 319 320 311 309 310 304 291 290 284 287 303 305 311 303 298 303 295 278 277 278
222 265 270 307 342 12 348 72 8 58 41 28 31 61 234 82 46 351 342 343 328 327 328 326 313 322 316 315 316 330 331 333 321 298 289 292 291 300 303 294 293 285 279 274
192 222 272 236 254 313 282 200 72 57 64 54 58 48 8 8 10 360 334 329 315 316 317 311 311 316 321 306 303 306 306 309 310 312 315 299 290 285 286 293 292 286 278 274
168 213 271 345 23 1 165 118 76 64 73 69 44 5 344 342 338 331 322 320 316 315 300 312 316 314 306 303 304 306 307 306 308 311 309 309 303 297 293 280 286 290 284 280
292 218 257 8 348 56 179 141 99 94 74 45 8 342 329 329 327 326 322 315 307 295 301 303 307 308 304 304 305 297 297 294 302 302 307 311 306 303 299 301 298 293 283 280
338 334 310 320 8 33 84 84 99 93 53 17 359 340 331 313 309 306 306 305 304 303 307 311 317 309 302 301 301 298 292 294 298 304 309 316 316 309 304 302 298 296 291 279
209 217 292 344 93 193 115 70 48 44 40 357 345 333 324 316 318 318 303 303 312 311 307 306 300 307 305 310 307 299 299 301 304 311 308 304 308 302 306 301 302 295 286 284
249 23 105 166 167 123 119 109 95 354 352 345 337 341 319 314 318 315 311 306 307 309 305 307 301 304 310 311 300 307 308 310 312 309 312 314 316 309 303 307 308 298 290 282
273 280 278 240 121 113 111 87 39 16 354 349 335 332 332 324 320 313 309 309 307 306 305 306 308 305 307 305 308 309 312 311 308 312 314 308 310 310 312 310 315 302 300 299
240 242 239 83 91 124 129 53 14 334 344 337 333 329 320 313 312 320 321 311 313 306 314 321 324 313 299 307 308 308 300 302 304 304 298 299 305 311 315 309 301 305 312 289
215 179 128 129 129 122 89 353 21 13 349 335 332 324 319 316 314 310 313 311 309 306 310 318 330 323 322 313 305 306 306 304 300 298 292 293 295 302 306 309 297 301 308 297
199 171 55 112 154 158 119 22 3 349 358 341 333 344 342 340 335 336 322 309 315 312 326 327 330 314 307 311 312 311 307 303 299 291 287 293 291 285 298 298 300 311 312 291
300 79 89 78 133 118 78 19 18 349 350 337 343 347 329 325 320 325 327 319 320 329 342 355 344 334 325 322 317 314 314 312 304 290 299 292 298 296 299 297 301 309 316 290
144 100 105 143 130 111 87 25 10 336 335 346 335 326 326 322 328 332 332 318 321 337 5 350 344 332 326 328 334 333 328 320 308 297 286 281 285 301 301 307 301 273 177 146
134 135 139 119 77 91 77 49 340 330 348 337 329 342 343 336 324 332 342 332 346 15 12 356 343 341 350 352 350 344 341 345 339 317 295 295 289 191 6 6 103 55 52 68
136 139 140 126 169 63 88 6 347 354 338 338 343 326 338 345 355 3 354 35 52 22 4 354 351 353 357 4 1 7 34 38 35 54 79 115 92 49 45 61 106 87 85 96
156 156 161 174 84 52 98 17 20 358 346 345 335 335 358 0 11 24 79 49 36 27 14 353 9 13 10 15 19 23 27 58 83 87 83 81 77 76 89 97 92 83 78 78
162 167 152 167 185 123 106 37 28 3 360 17 34 39 49 61 63 62 47 44 46 22 14 26 23 19 24 29 40 42 52 62 65 69 77 75 74 80 81 87 93 88 85 86
154 141 157 158 129 106 120 120 42 0 21 34 46 55 57 40 49 45 49 55 44 39 27 26 18 14 23 43 54 58 59 66 78 82 82 83 85 81 76 72 64 64 78 83
138 142 131 131 135 108 144 143 115 8 39 51 44 46 53 53 47 49 46 38 40 43 40 42 21 9 61 69 69 71 77 82 86 89 78 79 76 75 75 72 73 66 63 66
128 137 154 175 166 119 105 128 127 91 34 40 41 45 46 51 59 54 53 46 42 67 57 51 50 55 62 68 66 64 63 65 67 64 66 69 79 82 84 80 74 71 78 88
123 109 99 101 90 117 111 159 130 126 68 54 39 38 53 54 57 57 69 57 61 72 72 48 40 49 54 52 60 68 65 65 67 71 66 76 77 77 86 89 88 81 72 71
122 113 98 31 84 105 81 103 94 90 19 95 62 29 47 49 59 58 68 68 58 61 61 55 53 53 51 55 51 71 66 60 56 57 72 89 84 85 78 87 82 60 65 77